Location: Humble ISD Astronomical Observatory
(29.9680°N, 95.2620°W)
Time: 00:59:35
(UTC-05:00)

Tiangong 2 - Pass Details

Date: 30 March 2019
Orbit: 378 x 390 km, 42.8° (Epoch: 24 April)

Event Time Altitude Azimuth Distance (km) Brightness Sun altitude
Rises 20:50:17 0° 254° (WSW) 2,235 6.0 -16.1°
Reaches altitude 10° 20:52:27 10° 264° (W) 1,384 5.0 -16.6°
Maximum altitude 20:55:20 34° 332° (NNW) 644 2.6 -17.2°
Enters shadow 20:57:06 19° 28° (NNE) 991 3.0 -17.6°
